KE5KUL-13 Weather Reports


Display with metric or nautical units.
time (UTC)temp
F
wind
direction
speed
MPH
gust
MPH
rain 1hr
in
rain 24hr
in
rain mn
in
humidity
%
barometer
mb
20260505125018 53 23 5.0 12.0 0.00 0.00 0.00 53 1008.3
20260505124017 53 0 7.0 15.0 0.00 0.00 0.00 53 1008.1
20260505123018 53 23 5.0 10.0 0.00 0.00 0.00 54 1008.4
20260505122018 54 23 6.0 13.0 0.00 0.00 0.00 54 1008.2
20260505121018 54 23 5.0 11.0 0.00 0.00 0.00 54 1007.9
20260505120017 54 45 5.0 9.0 0.00 0.00 0.00 54 1008.0
20260505115017 54 23 5.0 11.0 0.00 0.00 0.00 54 1007.9
20260505114018 54 45 5.0 11.0 0.00 0.00 0.00 54 1007.5
20260505113017 55 23 6.0 15.0 0.00 0.00 0.00 55 1007.9
20260505112017 55 23 5.0 11.0 0.00 0.00 0.00 55 1007.9
20260505111017 56 23 5.0 12.0 0.00 0.00 0.00 55 1007.9
20260505102017 60 23 8.0 17.0 0.00 0.00 0.00 52 1008.5
20260505101036 61 338 6.0 14.0 0.00 0.00 0.00 48 1008.5
20260505100017 63 23 7.0 15.0 0.00 0.00 0.00 44 1008.5
20260505095017 65 0 9.0 18.0 0.00 0.00 0.00 37 1008.3
20260505094017 66 315 7.0 15.0 0.00 0.00 0.00 29 1008.0
20260505093017 66 338 5.0 16.0 0.00 0.00 0.00 26 1007.6
20260505092017 66 315 4.0 10.0 0.00 0.00 0.00 27 1007.4
20260505091017 66 315 4.0 9.0 0.00 0.00 0.00 29 1007.4
20260505090017 66 293 2.0 4.0 0.00 0.00 0.00 28 1007.1
20260505085017 67 225 2.0 6.0 0.00 0.00 0.00 28 1006.8
20260505084017 68 248 3.0 8.0 0.00 0.00 0.00 28 1006.8
20260505083017 68 225 4.0 9.0 0.00 0.00 0.00 27 1006.6
20260505082019 68 248 4.0 9.0 0.00 0.00 0.00 28 1006.5
20260505081017 68 248 3.0 9.0 0.00 0.00 0.00 28 1006.7
20260505080017 68 248 3.0 8.0 0.00 0.00 0.00 28 1006.8
20260505075017 68 225 3.0 8.0 0.00 0.00 0.00 28 1007.0
20260505074019 68 225 3.0 6.0 0.00 0.00 0.00 27 1007.0
20260505073017 69 248 3.0 9.0 0.00 0.00 0.00 27 1007.3
20260505072017 69 225 3.0 8.0 0.00 0.00 0.00 26 1007.2
20260505071017 70 270 5.0 10.0 0.00 0.00 0.00 26 1007.5
20260505070019 70 248 6.0 12.0 0.00 0.00 0.00 26 1007.5
20260505065019 70 270 5.0 10.0 0.00 0.00 0.00 26 1007.4
20260505064017 70 248 5.0 11.0 0.00 0.00 0.00 26 1007.4
20260505063017 70 225 4.0 11.0 0.00 0.00 0.00 26 1007.6
20260505062019 70 248 5.0 14.0 0.00 0.00 0.00 25 1007.7
20260505061018 71 248 6.0 13.0 0.00 0.00 0.00 25 1007.7
20260505060017 71 248 6.0 13.0 0.00 0.00 0.00 25 1007.6
20260505055017 71 248 6.0 12.0 0.00 0.00 0.00 25 1007.7
20260505054019 71 248 6.0 13.0 0.00 0.00 0.00 25 1007.7
20260505053019 71 248 6.0 12.0 0.00 0.00 0.00 25 1007.8
20260505052018 71 248 6.0 14.0 0.00 0.00 0.00 25 1007.8
20260505051017 71 225 5.0 10.0 0.00 0.00 0.00 25 1007.8
20260505041017 73 225 5.0 12.0 0.00 0.00 0.00 24 1008.0
20260505040018 73 225 7.0 13.0 0.00 0.00 0.00 24 1008.0
20260505035018 74 248 6.0 12.0 0.00 0.00 0.00 23 1007.8
20260505034017 74 248 5.0 10.0 0.00 0.00 0.00 22 1007.6
20260505033017 75 225 7.0 14.0 0.00 0.00 0.00 21 1007.6
20260505032017 75 225 7.0 13.0 0.00 0.00 0.00 21 1007.4
20260505031018 75 225 6.0 12.0 0.00 0.00 0.00 19 1007.1
20260505030017 76 225 6.0 12.0 0.00 0.00 0.00 17 1006.9
20260505025017 76 225 5.0 12.0 0.00 0.00 0.00 16 1006.6
20260505024018 76 248 6.0 12.0 0.00 0.00 0.00 16 1006.3
20260505023017 77 248 6.0 10.0 0.00 0.00 0.00 16 1005.9
20260505022017 77 225 5.0 10.0 0.00 0.00 0.00 15 1005.9
20260505021017 77 225 6.0 12.0 0.00 0.00 0.00 15 1005.6
20260505020017 78 225 7.0 15.0 0.00 0.00 0.00 15 1005.6
20260505015017 78 248 6.0 13.0 0.00 0.00 0.00 15 1005.4
20260505014018 79 248 6.0 14.0 0.00 0.00 0.00 14 1005.2
20260505013017 79 248 7.0 13.0 0.00 0.00 0.00 14 1005.0
20260505012017 80 225 5.0 11.0 0.00 0.00 0.00 14 1004.9
20260505011017 81 225 4.0 11.0 0.00 0.00 0.00 14 1004.8
20260505010017 81 248 6.0 13.0 0.00 0.00 0.00 13 1005.1
20260505005017 82 248 6.0 15.0 0.00 0.00 0.00 13 1005.1
20260505004017 82 225 7.0 16.0 0.00 0.00 0.00 13 1005.2
20260505003017 83 248 8.0 18.0 0.00 0.00 0.00 13 1005.3
20260505002017 83 248 6.0 14.0 0.00 0.00 0.00 13 1005.3
20260505001017 83 225 8.0 17.0 0.00 0.00 0.00 13 1005.3
20260505000017 84 225 7.0 17.0 0.00 0.00 0.00 12 1005.5
20260504235017 84 248 8.0 21.0 0.00 0.00 0.00 13 1005.7
20260504234017 85 225 4.0 10.0 0.00 0.00 0.00 19 1005.5
20260504233017 85 225 4.0 9.0 0.00 0.00 0.00 20 1005.7
20260504232019 85 225 4.0 9.0 0.00 0.00 0.00 20 1005.7
20260504231019 85 248 6.0 13.0 0.00 0.00 0.00 19 1005.7
20260504230017 86 225 6.0 12.0 0.00 0.00 0.00 20 1006.2
20260504225017 87 225 5.0 11.0 0.00 0.00 0.00 19 1006.2
20260504224019 88 248 6.0 11.0 0.00 0.00 0.00 18 1006.5
20260504223019 89 248 6.0 15.0 0.00 0.00 0.00 17 1006.6
20260504222018 89 270 5.0 13.0 0.00 0.00 0.00 16 1006.8
20260504221017 88 225 4.0 12.0 0.00 0.00 0.00 16 1006.8
20260504220019 90 225 7.0 14.0 0.00 0.00 0.00 15 1007.2
20260504215019 90 315 5.0 12.0 0.00 0.00 0.00 16 1007.5
20260504214018 88 270 6.0 16.0 0.00 0.00 0.00 17 1007.5
20260504213017 88 225 6.0 13.0 0.00 0.00 0.00 17 1007.5
20260504212019 89 248 4.0 11.0 0.00 0.00 0.00 18 1007.8
20260504211019 89 248 5.0 13.0 0.00 0.00 0.00 17 1008.2
20260504210018 88 270 7.0 15.0 0.00 0.00 0.00 18 1008.4
20260504205221 88 248 7.0 16.0 0.00 0.00 0.00 17 1008.3
20260504204519 88 248 7.0 15.0 0.00 0.00 0.00 17 1008.4
20260504203519 88 248 9.0 19.0 0.00 0.00 0.00 18 1008.6
20260504202518 87 248 6.0 12.0 0.00 0.00 0.00 19 1008.7
20260504201518 87 248 5.0 13.0 0.00 0.00 0.00 20 1008.9
20260504200519 87 248 6.0 16.0 0.00 0.00 0.00 21 1009.1
20260504195518 86 248 6.0 14.0 0.00 0.00 0.00 21 1009.0
20260504194518 87 248 6.0 13.0 0.00 0.00 0.00 20 1009.1
20260504193518 87 270 6.0 20.0 0.00 0.00 0.00 20 1009.5
20260504192518 88 293 6.0 12.0 0.00 0.00 0.00 20 1009.8
20260504191518 88 315 6.0 11.0 0.00 0.00 0.00 19 1009.8
20260504190517 88 270 5.0 12.0 0.00 0.00 0.00 19 1009.8
20260504185518 88 248 6.0 14.0 0.00 0.00 0.00 19 1009.9
20260504184518 89 315 4.0 14.0 0.00 0.00 0.00 19 1010.3
20260504183518 88 293 6.0 15.0 0.00 0.00 0.00 20 1010.6
20260504182518 89 293 6.0 14.0 0.00 0.00 0.00 20 1011.0
20260504181519 88 270 5.0 15.0 0.00 0.00 0.00 20 1011.1
20260504180518 88 270 5.0 10.0 0.00 0.00 0.00 20 1011.4
20260504175518 88 248 5.0 12.0 0.00 0.00 0.00 21 1011.6
20260504174518 88 315 5.0 11.0 0.00 0.00 0.00 21 1011.5
20260504173518 88 293 4.0 12.0 0.00 0.00 0.00 20 1011.6
20260504172518 87 270 5.0 11.0 0.00 0.00 0.00 21 1011.8
20260504171518 87 315 5.0 13.0 0.00 0.00 0.00 21 1011.9
20260504170518 87 315 7.0 17.0 0.00 0.00 0.00 21 1012.1
20260504150518 75 293 5.0 9.0 0.00 0.00 0.00 38 1012.1
20260504140518 65 248 4.0 9.0 0.00 0.00 0.00 53 1011.7
20260504130518 59 248 2.0 7.0 0.00 0.00 0.00 61 1011.3